EW3808 Weather Reports


Display with metric or nautical units.
time (UTC)temp
F
wind
direction
speed
MPH
gust
MPH
rain 1hr
in
rain 24hr
in
rain mn
in
humidity
%
barometer
mb
20260905212817 72 161 2.0 11.0 0.00 0.00 0.00 22 1021.2
20260905211820 73 186 4.0 19.0 0.00 0.00 0.00 24 1021.3
20260905205719 72 136 2.0 0.0 0.00 0.00 0.00 23 1021.5
20260905204649 72 173 4.0 19.0 0.00 0.00 0.00 23 1021.5
20260905203628 72 86 5.0 19.0 0.00 0.00 0.00 24 1021.4
20260905202639 72 163 4.0 19.0 0.00 0.00 0.00 23 1021.6
20260905201651 72 158 5.0 19.0 0.00 0.00 0.00 24 1021.5
20260905200650 71 165 4.0 15.0 0.00 0.00 0.00 25 1021.7
20260905195625 70 171 6.0 17.0 0.00 0.00 0.00 25 1021.6
20260905194614 70 134 5.0 17.0 0.00 0.00 0.00 25 1021.6
20260905193631 70 153 6.0 16.0 0.00 0.00 0.00 27 1021.7
20260905192635 69 203 5.0 16.0 0.00 0.00 0.00 26 1021.7
20260905191653 69 208 6.0 18.0 0.00 0.00 0.00 24 1021.9
20260905185532 68 128 4.0 18.0 0.00 0.00 0.00 28 1022.1
20260905184505 68 244 5.0 16.0 0.00 0.00 0.00 29 1022.2
20260905183509 68 163 4.0 12.0 0.00 0.00 0.00 32 1022.4
20260905182521 68 107 1.0 9.0 0.00 0.00 0.00 34 1022.3
20260905181532 67 172 7.0 17.0 0.00 0.00 0.00 32 1022.4
20260905180548 69 88 3.0 14.0 0.00 0.00 0.00 34 1022.5
20260905173203 67 237 3.0 12.0 0.00 0.00 0.00 33 1022.6
20260905172158 66 104 2.0 12.0 0.00 0.00 0.00 35 1022.6
20260905170018 66 105 3.0 14.0 0.00 0.00 0.00 33 1022.7
20260905165031 66 234 2.0 14.0 0.00 0.00 0.00 36 1022.7
20260905164016 66 219 0.0 10.0 0.00 0.00 0.00 35 1022.6
20260905163022 66 201 1.0 0.0 0.00 0.00 0.00 35 1022.6
20260905160854 65 192 4.0 11.0 0.00 0.00 0.00 38 1022.5
20260905155834 65 117 2.0 8.0 0.00 0.00 0.00 37 1022.5
20260905154831 64 109 2.0 8.0 0.00 0.00 0.00 40 1022.6
20260905153759 64 171 0.0 4.0 0.00 0.00 0.00 42 1022.7
20260905152811 62 128 0.0 0.0 0.00 0.00 0.00 43 1022.7
20260905151817 61 127 0.0 0.0 0.00 0.00 0.00 44 1022.7
20260905150836 60 130 0.0 0.0 0.00 0.00 0.00 47 1022.7
20260905144715 55 155 0.0 0.0 0.00 0.00 0.00 58 1022.7
20260905143703 53 156 0.0 0.0 0.00 0.00 0.00 63 1022.6
20260905142717 51 157 0.0 0.0 0.00 0.00 0.00 63 1022.7
20260905141650 49 155 3.0 8.0 0.00 0.00 0.00 67 1022.5
20260905140656 47 148 4.0 9.0 0.00 0.00 0.00 68 1022.5
20260905135708 46 133 6.0 9.0 0.00 0.00 0.00 69 1022.4
20260905134725 46 136 5.0 8.0 0.00 0.00 0.00 69 1022.4
20260905133732 46 121 3.0 8.0 0.00 0.00 0.00 69 1022.4
20260905130500 47 129 4.0 8.0 0.00 0.00 0.00 67 1021.9
20260905125452 47 121 4.0 8.0 0.00 0.00 0.00 67 1021.7
20260905124431 47 156 5.0 8.0 0.00 0.00 0.00 67 1021.6
20260905123447 47 143 4.0 8.0 0.00 0.00 0.00 67 1021.5
20260905121310 47 134 2.0 9.0 0.00 0.00 0.00 67 1021.3
20260905120328 47 130 2.0 8.0 0.00 0.00 0.00 67 1021.2
20260905115315 47 131 4.0 7.0 0.00 0.00 0.00 67 1021.3
20260905114310 48 140 4.0 10.0 0.00 0.00 0.00 67 1021.3
20260905110935 48 140 4.0 8.0 0.00 0.00 0.00 66 1021.1
20260905105901 48 154 1.0 0.0 0.00 0.00 0.00 66 1021.0
20260905104832 48 148 3.0 8.0 0.00 0.00 0.00 66 1020.9
20260905103847 49 132 1.0 7.0 0.00 0.00 0.00 65 1021.0
20260905102905 49 126 2.0 0.0 0.00 0.00 0.00 65 1021.1
20260905101902 49 123 1.0 8.0 0.00 0.00 0.00 65 1021.1
20260905100900 49 138 3.0 8.0 0.00 0.00 0.00 64 1021.0
20260905095837 49 130 1.0 4.0 0.00 0.00 0.00 64 1021.0
20260905094802 49 142 3.0 0.0 0.00 0.00 0.00 64 1020.8
20260905093756 49 144 0.0 2.0 0.00 0.00 0.00 64 1020.9
20260905092814 50 183 2.0 8.0 0.00 0.00 0.00 64 1020.8
20260905091814 50 165 2.0 8.0 0.00 0.00 0.00 64 1020.7
20260905090755 50 163 0.0 0.0 0.00 0.00 0.00 63 1020.6
20260905085744 50 174 0.0 0.0 0.00 0.00 0.00 62 1020.6
20260905084746 51 144 0.0 0.0 0.00 0.00 0.00 63 1020.6
20260905083724 51 157 1.0 6.0 0.00 0.00 0.00 61 1020.4
20260905082705 51 151 0.0 0.0 0.00 0.00 0.00 60 1020.4
20260905081712 52 161 1.0 0.0 0.00 0.00 0.00 60 1020.4
20260905075534 51 155 0.0 0.0 0.00 0.00 0.00 61 1020.4
20260905074526 51 157 1.0 0.0 0.00 0.00 0.00 62 1020.4
20260905073458 52 166 0.0 5.0 0.00 0.00 0.00 62 1020.2
20260905072440 52 159 1.0 6.0 0.00 0.00 0.00 61 1020.1
20260905071426 52 153 0.0 0.0 0.00 0.00 0.00 62 1019.9
20260905065222 52 148 0.0 0.0 0.00 0.00 0.00 65 1019.9
20260905063053 53 142 0.0 0.0 0.00 0.00 0.00 63 1019.7
20260905062112 53 150 0.0 0.0 0.00 0.00 0.00 63 1019.7
20260905061137 53 150 0.0 0.0 0.00 0.00 0.00 63 1019.5
20260905060132 53 151 0.0 0.0 0.00 0.00 0.00 62 1019.5
20260905055058 53 156 0.0 0.0 0.00 0.00 0.00 62 1019.4
20260905054108 53 147 0.0 0.0 0.00 0.00 0.00 61 1019.5
20260905053047 54 140 0.0 0.0 0.00 0.00 0.00 60 1019.6
20260905052045 55 148 0.0 0.0 0.00 0.00 0.00 58 1019.4
20260905051023 55 145 0.0 4.0 0.00 0.00 0.00 56 1019.5
20260905050002 56 159 0.0 0.0 0.00 0.00 0.00 54 1019.5
20260905043917 58 149 0.0 6.0 0.00 0.00 0.00 52 1019.7
20260905040621 58 161 0.0 0.0 0.00 0.00 0.00 50 1019.7
20260905035617 58 159 0.0 0.0 0.00 0.00 0.00 48 1019.7
20260905033508 59 154 0.0 0.0 0.00 0.00 0.00 49 1019.4
20260905032512 59 150 0.0 2.0 0.00 0.00 0.00 46 1019.4
20260905030404 60 164 0.0 0.0 0.00 0.00 0.00 44 1019.3
20260905025414 61 157 0.0 0.0 0.00 0.00 0.00 41 1019.2
20260905024427 61 151 0.0 0.0 0.00 0.00 0.00 39 1019.0
20260905023412 62 152 0.0 0.0 0.00 0.00 0.00 38 1018.9
20260905022358 63 164 0.0 0.0 0.00 0.00 0.00 37 1018.8
20260905021401 63 160 0.0 0.0 0.00 0.00 0.00 36 1018.7
20260905015231 64 175 0.0 0.0 0.00 0.00 0.00 34 1018.6
20260905014220 65 151 0.0 6.0 0.00 0.00 0.00 34 1018.4
20260905013150 66 161 0.0 0.0 0.00 0.00 0.00 32 1018.3
20260905012214 66 160 1.0 0.0 0.00 0.00 0.00 30 1018.3
20260905005113 68 184 1.0 12.0 0.00 0.00 0.00 28 1018.3
20260905004113 68 165 0.0 0.0 0.00 0.00 0.00 29 1018.3
20260905003138 69 161 0.0 0.0 0.00 0.00 0.00 28 1018.2
20260905002120 70 120 2.0 0.0 0.00 0.00 0.00 27 1018.2
20260905001046 71 130 4.0 14.0 0.00 0.00 0.00 26 1018.2
20260905000106 72 211 3.0 13.0 0.00 0.00 0.00 25 1018.3
20260904235128 73 168 0.0 10.0 0.00 0.00 0.00 24 1018.4
20260904233018 72 165 4.0 24.0 0.00 0.00 0.00 24 1018.4
20260904232030 72 132 5.0 24.0 0.00 0.00 0.00 23 1018.4
20260904231037 73 182 0.0 24.0 0.00 0.00 0.00 22 1018.6
20260904230047 72 207 4.0 15.0 0.00 0.00 0.00 23 1018.4
20260904225048 72 152 4.0 20.0 0.00 0.00 0.00 22 1018.4
20260904224103 72 184 2.0 16.0 0.00 0.00 0.00 24 1018.4
20260904223041 71 150 3.0 20.0 0.00 0.00 0.00 24 1018.7
20260904222047 71 172 6.0 20.0 0.00 0.00 0.00 26 1018.5
20260904221044 71 273 2.0 20.0 0.00 0.00 0.00 23 1018.7
20260904220100 70 92 4.0 19.0 0.00 0.00 0.00 25 1018.6